Regional Weather Roundup
Issued by NWS Nashville, TN

Home | Current Version | Previous Version | Text Only | Print | Product List | Glossary On
Versions: 1 2 3 4 5 6 7 8 9 10 11 12 13 14 15 16 17 18 19 20 21 22 23 24 25 26 27 28 29 30 31 32 33 34 35 36 37 38 39 40 41 42 43 44 45 46 47 48 49 50
000
ASUS44 KOHX 042010
RWROHX
MIDDLE TENNESSEE HOURLY WEATHER ROUNDUP
NATIONAL WEATHER SERVICE NASHVILLE TN
300 PM CDT SAT JUL 04 2015

NOTE: "FAIR" INDICATES FEW OR NO CLOUDS BELOW 12,000 FEET WITH
NO SIGNIFICANT WEATHER AND/OR OBSTRUCTIONS TO VISIBILITY.

* THESE REPORTS ARE NOT UNDER NWS QUALITY CONTROL AND MAY NOT
  REPORT WEATHER SUCH AS PRECIPITATION AND FOG.


TNZ005>011-023>034-057-059-062>066-078-080-042100
...NORTHERN MIDDLE TENNESSEE...

CITY           SKY/WX    TMP DP  RH WIND       PRES   REMARKS
CLARKSVILLE    CLOUDY    80  69  69 N8        29.98S
CROSSVILLE     CLOUDY    76  66  71 W6        30.06S
DICKSON        CLOUDY    79  70  73 CALM      29.99F
LIVINGSTON     CLOUDY    80  69  69 SW5       30.03
NASHVILLE      LGT RAIN  73  72  94 NW5       29.99F
PORTLAND       CLOUDY   N/A N/A N/A S7        29.99S
SMYRNA         CLOUDY    82  72  72 S8        30.00S
SPARTA         PTSUNNY   81  73  78 SW6       30.01S
$$
TNZ056-058-060-061-075>077-079-093>097-042100
...SOUTHERN MIDDLE TENNESSEE...

CITY           SKY/WX    TMP DP  RH WIND       PRES   REMARKS
COLUMBIA       MOSUNNY   81  72  74 CALM      29.98F
MCMINNVILLE    PTSUNNY   77  72  83 SW8       30.03S
SHELBYVILLE    PTSUNNY   79  72  78 SW5         N/A
TULLAHOMA      MOSUNNY   79  68  69 W3        30.03F
WINCHESTER     MOSUNNY   81  70  69 SW5       30.02F
$$


...KEY TO REMARKS...
VSB - VISIBILITY IN MILES
WCI - WIND CHILL INDEX
HX  - HEAT INDEX



USA.gov is the U.S. government's official web portal to all federal, state and local government web resources and services.